period_start,C,m1,H,J0,J1,J2,J3,J4,J5,JA,JB,JC,JD,JJ,JK,JN,#
2014-04-17 00:00:27,0.07,0.28,0.00,20.69,27.80,30.02,5.96,31.92,1005.84,2035.99,3364.32,3242.00,3511.23,349.58,322.91,3.82,0000 0000 0000 0000 000000
2014-04-17 00:01:27,0.07,0.29,0.00,20.68,27.80,30.03,6.07,32.00,1005.84,2036.00,3364.13,3241.99,3511.09,349.79,322.94,3.83,0000 0000 0000 0000 000000
2014-04-17 00:02:27,0.04,0.29,0.00,20.67,27.79,30.03,5.88,31.75,1005.86,2036.00,3364.05,3241.97,3511.04,350.08,323.59,3.83,0000 0000 0000 0000 000000
2014-04-17 00:03:27,0.01,0.29,0.00,20.68,27.79,29.98,5.98,31.88,1005.87,2036.02,3364.02,3241.96,3511.02,349.44,322.56,3.84,0000 0000 0000 0000 000000
2014-04-17 00:04:28,0.01,0.29,0.00,20.67,27.78,30.00,6.09,31.96,1005.87,2036.02,3364.00,3241.97,3511.00,350.57,323.21,3.84,0000 0000 0000 0000 000000
2014-04-17 00:05:28,0.02,0.29,0.00,20.66,27.77,30.00,6.06,32.08,1005.84,2036.03,3363.79,3241.83,3510.95,350.43,323.78,3.85,0000 0000 0000 0000 000000
2014-04-17 00:06:28,0.07,0.29,0.00,20.65,27.77,29.92,5.88,31.71,1005.86,2036.02,3363.35,3241.57,3510.85,349.74,322.86,3.85,0000 0000 0000 0000 000000
2014-04-17 00:07:28,0.13,0.29,0.00,20.66,27.77,29.86,6.17,31.96,1005.86,2036.02,3363.13,3241.39,3510.59,350.50,323.57,3.86,0000 0000 0000 0000 000000
2014-04-17 00:08:28,0.10,0.29,0.00,20.65,27.77,29.89,5.92,32.08,1005.86,2036.01,3363.04,3241.17,3510.26,350.02,323.12,3.87,0000 0000 0000 0000 000000
2014-04-17 00:09:29,0.08,0.29,0.00,20.64,27.77,29.93,6.17,32.21,1005.86,2036.03,3363.01,3241.07,3510.10,350.03,323.14,3.87,0000 0000 0000 0000 000000
2014-04-17 00:10:29,0.05,0.29,0.00,20.64,27.77,29.86,6.02,31.67,1005.87,2036.02,3362.89,3241.02,3510.04,350.30,323.39,3.88,0000 0000 0000 0000 000000
2014-04-17 00:11:29,0.03,0.29,0.00,20.63,27.77,29.87,6.12,32.04,1005.87,2036.04,3362.56,3241.00,3510.01,349.13,322.49,3.88,0000 0000 0000 0000 000000
2014-04-17 00:12:29,0.05,0.29,0.00,20.62,27.76,29.84,6.08,32.29,1005.87,2036.05,3362.24,3241.00,3510.00,350.65,323.75,3.89,0000 0000 0000 0000 000000
2014-04-17 00:13:30,0.05,0.29,0.00,20.61,27.75,29.81,6.03,32.00,1005.88,2036.03,3362.11,3241.00,3509.97,349.50,322.69,3.90,0000 0000 0000 0000 000000
2014-04-17 00:14:30,0.02,0.29,0.00,20.62,27.75,29.85,6.03,31.75,1005.87,2036.02,3362.04,3241.00,3509.74,350.14,323.55,3.90,0000 0000 0000 0000 000000
2014-04-17 00:15:30,0.03,0.29,0.00,20.61,27.75,29.85,6.02,32.00,1005.89,2036.03,3361.99,3240.97,3509.34,349.54,323.03,3.91,0000 0000 0000 0000 000000
2014-04-17 00:16:30,0.06,0.29,0.00,20.60,27.75,29.89,6.10,32.54,1005.87,2036.03,3361.84,3240.95,3509.14,349.81,322.98,3.91,0000 0000 0000 0000 000000
2014-04-17 00:17:31,0.05,0.29,0.00,20.59,27.75,29.89,6.08,32.08,1005.89,2036.02,3361.47,3240.88,3509.07,350.60,323.39,3.92,0000 0000 0000 0000 000000
2014-04-17 00:18:31,0.06,0.29,0.00,20.59,27.75,30.05,6.02,31.92,1005.88,2036.04,3361.21,3240.75,3509.02,350.40,323.54,3.92,0000 0000 0000 0000 000000
2014-04-17 00:19:31,0.08,0.29,0.00,20.59,27.75,30.13,6.09,32.50,1005.88,2036.03,3361.07,3240.54,3509.00,350.39,323.36,3.93,0000 0000 0000 0000 000000
2014-04-17 00:20:32,0.07,0.29,0.00,20.59,27.75,30.18,6.07,31.92,1005.87,2036.07,3361.03,3240.26,3509.00,349.45,322.75,3.94,0000 0000 0000 0000 000000
2014-04-17 00:21:32,0.08,0.29,0.00,20.59,27.74,30.17,5.98,32.08,1005.88,2036.09,3361.00,3240.13,3509.00,350.21,323.37,3.94,0000 0000 0000 0000 000000
2014-04-17 00:22:32,0.03,0.29,0.00,20.57,27.74,30.20,6.15,32.13,1005.88,2036.08,3360.91,3240.05,3508.96,350.08,323.43,3.95,0000 0000 0000 0000 000000
2014-04-17 00:23:32,0.03,0.29,0.00,20.57,27.73,30.17,6.00,32.21,1005.87,2036.08,3360.61,3240.02,3508.78,349.39,322.88,3.95,0000 0000 0000 0000 000000
2014-04-17 00:24:33,0.06,0.29,0.00,20.57,27.72,30.24,6.02,32.46,1005.90,2036.09,3360.28,3240.00,3508.38,349.55,322.63,3.96,0000 0000 0000 0000 000000
2014-04-17 00:25:33,0.08,0.29,0.00,20.57,27.72,30.13,6.20,32.38,1005.90,2036.07,3360.10,3240.00,3508.16,350.21,323.77,3.97,0000 0000 0000 0000 000000
2014-04-17 00:26:33,0.07,0.29,0.00,20.57,27.72,30.12,6.08,32.33,1005.90,2036.12,3360.03,3240.00,3508.06,350.06,322.59,3.97,0000 0000 0000 0000 000000
2014-04-17 00:27:33,0.05,0.29,0.00,20.56,27.72,30.11,6.00,32.08,1005.93,2036.16,3360.00,3240.00,3508.02,349.71,323.04,3.98,0000 0000 0000 0000 000000
2014-04-17 00:28:34,0.01,0.29,0.00,20.57,27.72,30.15,6.07,32.29,1005.93,2036.09,3359.92,3239.98,3507.99,349.50,322.76,3.98,0000 0000 0000 0000 000000
2014-04-17 00:29:34,-0.02,0.29,0.00,20.56,27.72,30.16,6.07,32.08,1005.92,2036.06,3359.62,3239.94,3507.98,349.98,323.20,3.99,0000 0000 0000 0000 000000
2014-04-17 00:30:34,0.05,0.29,0.00,20.55,27.72,30.16,6.03,32.38,1006.05,2036.06,3359.30,3239.66,3507.76,350.01,323.28,4.00,0000 0000 0000 0000 000000
2014-04-17 00:31:34,0.12,0.29,0.00,20.54,27.71,30.05,6.02,32.38,1006.02,2036.06,3359.12,3239.35,3507.39,349.29,322.61,4.00,0000 0000 0000 0000 000000
2014-04-17 00:32:35,0.12,0.30,0.00,20.55,27.70,30.08,6.16,32.46,1006.01,2036.08,3359.04,3239.16,3507.16,351.10,324.28,4.01,0000 0000 0000 0000 000000
2014-04-17 00:33:35,0.07,0.30,0.00,20.54,27.70,30.06,6.21,32.46,1005.98,2036.06,3358.91,3239.06,3507.06,350.79,323.38,4.01,0000 0000 0000 0000 000000
2014-04-17 00:34:35,0.09,0.30,0.00,20.52,27.70,30.05,5.88,32.00,1006.08,2036.22,3358.66,3239.02,3507.02,349.06,322.62,4.02,0000 0000 0000 0000 000000
2014-04-17 00:35:35,0.11,0.30,0.00,20.52,27.70,30.03,6.09,32.21,1006.12,2036.26,3358.39,3239.00,3507.00,349.94,323.27,4.02,0000 0000 0000 0000 000000
2014-04-17 00:36:36,0.09,0.30,0.00,20.50,27.70,30.06,6.11,32.50,1005.99,2036.30,3358.16,3239.00,3507.00,350.23,323.52,4.03,0000 0000 0000 0000 000000
2014-04-17 00:37:36,0.09,0.30,0.00,20.49,27.70,30.02,5.91,32.13,1005.90,2036.40,3358.06,3239.00,3507.00,349.51,322.77,4.04,0000 0000 0000 0000 000000
2014-04-17 00:38:36,0.02,0.30,0.00,20.49,27.70,30.04,5.93,32.29,1005.95,2036.36,3358.02,3239.00,3506.97,349.14,322.69,4.04,0000 0000 0000 0000 000000
2014-04-17 00:39:36,0.06,0.30,0.00,20.49,27.70,30.09,5.99,32.04,1006.02,2036.52,3358.00,3239.00,3506.76,349.65,323.00,4.05,0000 0000 0000 0000 000000
2014-04-17 00:40:37,0.10,0.30,0.00,20.49,27.69,30.06,6.06,32.08,1006.18,2036.47,3357.79,3238.95,3506.41,349.68,323.15,4.05,0000 0000 0000 0000 000000
2014-04-17 00:41:37,0.06,0.30,0.00,20.47,27.68,30.11,5.98,32.25,1006.24,2036.48,3357.43,3238.86,3506.16,349.96,323.33,4.06,0000 0000 0000 0000 000000
2014-04-17 00:42:37,0.07,0.30,0.00,20.46,27.67,30.08,6.00,31.92,1006.33,2036.45,3357.18,3238.69,3506.05,349.14,322.66,4.07,0000 0000 0000 0000 000000
2014-04-17 00:43:38,0.09,0.30,0.00,20.46,27.67,30.04,6.08,32.21,1006.35,2036.60,3357.06,3238.50,3506.02,350.21,324.03,4.07,0000 0000 0000 0000 000000
2014-04-17 00:44:38,0.18,0.30,0.00,20.45,27.67,30.13,6.05,32.21,1006.36,2036.78,3357.02,3238.36,3506.00,349.74,323.25,4.08,0000 0000 0000 0000 000000
2014-04-17 00:45:38,0.17,0.30,0.00,20.44,27.67,30.01,6.01,32.08,1006.37,2036.85,3357.00,3238.20,3506.00,348.92,322.65,4.08,0000 0000 0000 0000 000000
2014-04-17 00:46:38,0.09,0.30,0.00,20.43,27.67,29.91,6.06,31.96,1006.37,2036.90,3356.99,3238.09,3505.99,349.50,323.04,4.09,0000 0000 0000 0000 000000
2014-04-17 00:47:39,0.05,0.30,0.00,20.42,27.67,29.97,6.09,32.13,1006.36,2036.87,3356.83,3238.06,3505.97,350.01,323.52,4.09,0000 0000 0000 0000 000000
2014-04-17 00:48:39,0.05,0.30,0.00,20.43,27.67,29.98,6.07,32.38,1006.39,2036.82,3356.43,3238.02,3505.66,350.01,323.52,4.10,0000 0000 0000 0000 000000
2014-04-17 00:49:39,0.04,0.30,0.00,20.42,27.66,30.10,6.06,32.17,1006.52,2036.78,3356.16,3238.00,3505.29,349.93,323.50,4.11,0000 0000 0000 0000 000000
2014-04-17 00:50:39,0.06,0.30,0.00,20.43,27.65,30.03,6.00,32.29,1006.55,2036.84,3356.06,3237.99,3505.13,350.05,323.61,4.11,0000 0000 0000 0000 000000
2014-04-17 00:51:40,0.07,0.31,0.00,20.42,27.65,29.97,6.03,32.25,1006.55,2036.87,3356.02,3237.99,3505.05,350.66,324.18,4.12,0000 0000 0000 0000 000000
2014-04-17 00:52:40,0.02,0.31,0.00,20.41,27.65,29.99,6.13,32.13,1006.80,2036.87,3355.98,3237.99,3505.01,349.98,323.51,4.12,0000 0000 0000 0000 000000
2014-04-17 00:53:40,0.04,0.31,0.00,20.40,27.65,29.88,6.07,32.00,1006.85,2036.93,3355.92,3237.96,3505.00,350.66,324.36,4.13,0000 0000 0000 0000 000000
2014-04-17 00:54:41,0.06,0.31,0.00,20.39,27.65,29.86,6.01,32.25,1006.85,2036.96,3355.61,3237.93,3504.98,349.90,323.62,4.14,0000 0000 0000 0000 000000
2014-04-17 00:55:41,0.07,0.31,0.00,20.36,27.65,29.90,6.02,32.13,1006.86,2036.90,3355.25,3237.75,3504.88,350.13,323.85,4.14,0000 0000 0000 0000 000000
2014-04-17 00:56:41,0.09,0.31,0.00,20.35,27.64,29.95,6.03,32.21,1006.86,2036.86,3355.09,3237.46,3504.57,350.05,323.79,4.15,0000 0000 0000 0000 000000
2014-04-17 00:57:41,0.06,0.31,0.00,20.34,27.63,29.90,5.92,32.17,1006.86,2036.90,3355.03,3237.34,3504.33,349.04,322.60,4.15,0000 0000 0000 0000 000000
2014-04-17 00:58:42,0.08,0.31,0.00,20.34,27.62,29.78,6.25,31.92,1006.86,2036.90,3355.00,3237.17,3504.17,351.01,324.70,4.16,0000 0000 0000 0000 000000
2014-04-17 00:59:42,0.07,0.31,0.00,20.34,27.62,29.76,6.01,31.58,1006.97,2036.94,3354.95,3237.10,3504.09,349.97,323.81,4.16,0000 0000 0000 0000 000000
2014-04-17 01:00:42,0.04,0.31,0.00,20.33,27.62,29.77,6.12,31.75,1007.27,2036.94,3354.70,3237.05,3504.03,351.29,325.09,4.17,0000 0000 0000 0000 000000
2014-04-17 01:01:42,0.05,0.31,0.00,20.32,27.62,29.83,6.16,32.00,1007.33,2036.93,3354.27,3237.01,3504.01,350.27,324.12,4.18,0000 0000 0000 0000 000000
2014-04-17 01:02:43,0.05,0.31,0.00,20.31,27.62,29.73,6.17,32.04,1007.34,2036.95,3354.10,3237.00,3504.00,350.64,324.46,4.18,0000 0000 0000 0000 000000
2014-04-17 01:03:43,0.05,0.31,0.00,20.30,27.62,29.69,6.16,31.96,1007.34,2036.97,3354.03,3237.00,3504.00,350.35,324.29,4.19,0000 0000 0000 0000 000000
2014-04-17 01:04:43,0.02,0.31,0.00,20.31,27.60,29.64,6.07,32.04,1007.34,2036.97,3354.00,3237.00,3503.99,350.07,324.01,4.19,0000 0000 0000 0000 000000
2014-04-17 01:05:44,0.01,0.31,0.00,20.31,27.60,29.63,5.88,31.79,1007.34,2036.97,3353.94,3236.99,3503.88,348.95,322.97,4.20,0000 0000 0000 0000 000000
2014-04-17 01:06:44,0.02,0.31,0.00,20.32,27.60,29.66,6.07,32.08,1007.34,2036.98,3353.82,3236.99,3503.65,350.25,324.19,4.21,0000 0000 0000 0000 000000
2014-04-17 01:07:44,0.06,0.31,0.00,20.31,27.60,29.67,5.93,31.96,1007.35,2036.98,3353.39,3236.98,3503.33,349.56,323.55,4.21,0000 0000 0000 0000 000000
2014-04-17 01:08:44,0.09,0.31,0.00,20.29,27.60,29.74,6.13,32.04,1007.35,2036.99,3353.15,3236.89,3503.13,350.14,324.11,4.22,0000 0000 0000 0000 000000
2014-04-17 01:09:44,0.07,0.31,0.00,20.29,27.60,29.65,5.93,31.83,1007.34,2036.99,3353.05,3236.87,3503.08,349.35,323.37,4.22,0000 0000 0000 0000 000000
2014-04-17 01:10:45,0.03,0.31,0.00,20.28,27.58,29.61,6.10,32.13,1007.34,2036.99,3353.02,3236.79,3503.03,350.39,324.34,4.23,0000 0000 0000 0000 000000
2014-04-17 01:11:45,0.02,0.31,0.00,20.29,27.58,29.64,6.12,31.88,1007.35,2036.98,3353.00,3236.52,3503.01,350.03,324.00,4.24,0000 0000 0000 0000 000000
2014-04-17 01:12:45,0.05,0.31,0.00,20.29,27.57,29.69,6.03,32.04,1007.40,2036.98,3352.93,3236.28,3503.00,350.11,324.03,4.24,0000 0000 0000 0000 000000
2014-04-17 01:13:45,0.06,0.31,0.00,20.28,27.57,29.63,6.00,32.17,1007.36,2036.99,3352.69,3236.12,3502.97,349.67,323.77,4.25,0000 0000 0000 0000 000000
2014-04-17 01:14:46,0.08,0.31,0.00,20.27,27.57,29.61,6.09,32.00,1007.38,2036.99,3352.30,3236.05,3502.94,350.22,323.98,4.25,0000 0000 0000 0000 000000
2014-04-17 01:15:46,0.06,0.31,0.00,20.29,27.57,29.64,6.02,32.33,1007.34,2036.99,3352.12,3236.02,3502.84,349.59,323.60,4.26,0000 0000 0000 0000 000000
2014-04-17 01:16:46,0.04,0.31,0.00,20.29,27.57,29.62,5.99,31.83,1007.35,2036.99,3352.04,3236.01,3502.53,350.19,324.15,4.26,0000 0000 0000 0000 000000
2014-04-17 01:17:46,0.05,0.31,0.00,20.27,27.55,29.61,6.03,32.13,1007.34,2036.99,3352.01,3236.00,3502.27,349.77,323.82,4.27,0000 0000 0000 0000 000000
2014-04-17 01:18:47,0.03,0.31,0.00,20.26,27.55,29.58,6.00,32.04,1007.35,2036.99,3352.00,3236.00,3502.11,349.58,323.83,4.28,0000 0000 0000 0000 000000
2014-04-17 01:19:47,0.01,0.31,0.00,20.24,27.55,29.56,6.07,32.00,1007.35,2036.99,3351.99,3236.00,3502.04,350.41,324.86,4.28,0000 0000 0000 0000 000000
2014-04-17 01:20:47,0.01,0.31,0.00,20.24,27.55,29.56,6.01,31.88,1007.34,2036.99,3351.88,3236.00,3502.01,349.55,323.46,4.29,0000 0000 0000 0000 000000
2014-04-17 01:21:47,0.03,0.31,0.00,20.24,27.55,29.54,5.97,32.00,1007.34,2036.99,3351.47,3236.00,3502.00,350.03,324.05,4.29,0000 0000 0000 0000 000000
2014-04-17 01:22:48,0.04,0.31,0.00,20.24,27.54,29.61,6.12,32.25,1007.35,2036.99,3351.21,3235.99,3502.00,350.25,324.29,4.30,0000 0000 0000 0000 000000
2014-04-17 01:23:48,0.03,0.31,0.00,20.24,27.53,29.52,6.15,31.88,1007.35,2036.99,3351.08,3235.97,3502.00,350.47,324.65,4.31,0000 0000 0000 0000 000000
2014-04-17 01:24:48,0.02,0.31,0.00,20.23,27.52,29.51,6.00,32.33,1007.36,2036.99,3351.03,3235.94,3502.00,349.78,323.85,4.31,0000 0000 0000 0000 000000
2014-04-17 01:25:49,0.00,0.32,0.00,20.22,27.52,29.45,6.02,31.96,1007.47,2036.99,3351.01,3235.88,3501.98,349.61,323.73,4.32,0000 0000 0000 0000 000000
2014-04-17 01:26:49,0.03,0.32,0.00,20.20,27.52,29.47,6.05,31.92,1007.56,2036.99,3350.98,3235.76,3501.90,349.99,324.13,4.32,0000 0000 0000 0000 000000
2014-04-17 01:27:49,0.05,0.32,0.00,20.20,27.52,29.50,6.03,31.96,1007.67,2036.99,3350.80,3235.51,3501.67,349.87,324.06,4.33,0000 0000 0000 0000 000000
2014-04-17 01:28:49,0.10,0.32,0.00,20.20,27.51,29.46,6.17,31.83,1007.69,2036.99,3350.44,3235.31,3501.33,350.60,324.75,4.33,0000 0000 0000 0000 000000
2014-04-17 01:29:50,0.12,0.32,0.00,20.19,27.50,29.49,5.97,32.04,1007.69,2036.99,3350.22,3235.16,3501.14,349.88,324.09,4.34,0000 0000 0000 0000 000000
2014-04-17 01:30:50,0.08,0.32,0.00,20.18,27.50,29.41,5.98,32.00,1007.65,2036.99,3350.10,3235.07,3501.06,350.31,324.39,4.35,0000 0000 0000 0000 000000
2014-04-17 01:31:50,0.05,0.32,0.00,20.17,27.50,29.39,6.19,32.33,1007.66,2037.00,3350.03,3235.02,3501.02,351.38,325.31,4.35,0000 0000 0000 0000 000000
2014-04-17 01:32:51,0.03,0.32,0.00,20.16,27.50,29.37,5.83,32.33,1007.56,2037.00,3350.01,3235.00,3501.00,348.17,322.91,4.36,0000 0000 0000 0000 000000
2014-04-17 01:33:51,0.01,0.32,0.00,20.15,27.50,29.36,6.05,32.00,1007.50,2037.00,3350.00,3235.00,3501.00,350.42,324.56,4.36,0000 0000 0000 0000 000000
2014-04-17 01:34:51,0.01,0.32,0.00,20.17,27.48,29.37,6.14,32.46,1007.40,2037.00,3349.96,3235.00,3501.00,350.77,324.72,4.37,0000 0000 0000 0000 000000
2014-04-17 01:35:51,0.00,0.32,0.00,20.16,27.47,29.34,6.10,32.25,1007.48,2037.00,3349.80,3235.00,3501.00,350.59,324.70,4.38,0000 0000 0000 0000 000000
2014-04-17 01:36:51,0.02,0.32,0.00,20.17,27.47,29.31,5.90,32.08,1007.60,2037.02,3349.44,3235.00,3500.98,349.53,323.75,4.38,0000 0000 0000 0000 000000
2014-04-17 01:37:51,0.06,0.32,0.00,20.18,27.47,29.31,6.08,32.33,1007.62,2037.04,3349.17,3235.00,3500.95,349.25,323.49,4.39,0000 0000 0000 0000 000000
2014-04-17 01:38:52,0.06,0.32,0.00,20.17,27.47,29.32,5.94,31.79,1007.78,2037.04,3349.06,3235.00,3500.80,349.23,323.57,4.39,0000 0000 0000 0000 000000
2014-04-17 01:39:52,0.02,0.32,0.00,20.15,27.47,29.31,5.98,32.17,1007.79,2037.03,3348.99,3234.98,3500.60,349.61,323.91,4.40,0000 0000 0000 0000 000000
2014-04-17 01:40:52,0.04,0.32,0.00,20.14,27.46,29.30,6.25,32.33,1007.81,2037.07,3348.91,3234.90,3500.32,350.85,324.69,4.41,0000 0000 0000 0000 000000
2014-04-17 01:41:53,0.07,0.32,0.00,20.14,27.45,29.27,6.23,32.04,1007.81,2037.12,3348.61,3234.77,3500.13,350.87,325.17,4.41,0000 0000 0000 0000 000000
2014-04-17 01:42:53,0.11,0.32,0.00,20.15,27.45,29.30,6.11,31.88,1007.78,2037.16,3348.35,3234.69,3500.04,349.77,323.67,4.42,0000 0000 0000 0000 000000
2014-04-17 01:43:53,0.10,0.32,0.00,20.14,27.45,29.29,6.14,32.33,1007.83,2037.12,3348.16,3234.48,3500.01,350.34,324.60,4.42,0000 0000 0000 0000 000000
2014-04-17 01:44:54,0.05,0.32,0.00,20.14,27.45,29.28,6.13,32.25,1007.82,2037.21,3348.07,3234.31,3499.99,350.38,324.65,4.43,0000 0000 0000 0000 000000
2014-04-17 01:45:54,0.15,0.32,0.00,20.14,27.44,29.26,6.08,32.17,1007.83,2037.18,3348.02,3234.12,3499.98,350.05,324.34,4.43,0000 0000 0000 0000 000000
2014-04-17 01:46:54,0.00,0.32,0.00,20.12,27.43,29.27,6.11,32.25,1007.83,2037.20,3348.00,3234.06,3499.94,349.33,323.70,4.44,0000 0000 0000 0000 000000
2014-04-17 01:47:54,0.05,0.32,0.00,20.11,27.42,29.22,6.00,32.21,1007.83,2037.18,3347.99,3234.04,3499.79,349.62,323.97,4.45,0000 0000 0000 0000 000000
2014-04-17 01:48:54,-0.01,0.32,0.00,20.11,27.42,29.20,6.00,32.25,1007.83,2037.25,3347.91,3234.02,3499.57,349.42,323.79,4.45,0000 0000 0000 0000 000000
2014-04-17 01:49:55,0.11,0.32,0.00,20.12,27.42,29.23,6.16,32.33,1007.83,2037.27,3347.71,3234.00,3499.25,350.05,324.19,4.46,0000 0000 0000 0000 000000
2014-04-17 01:50:55,0.06,0.32,0.00,20.11,27.42,29.21,6.06,32.42,1007.83,2037.31,3347.38,3234.00,3499.11,349.77,324.04,4.46,0000 0000 0000 0000 000000
2014-04-17 01:51:55,0.10,0.32,0.00,20.11,27.41,29.21,5.82,32.67,1007.83,2037.32,3347.15,3234.00,3499.04,348.51,322.74,4.47,0000 0000 0000 0000 000000
2014-04-17 01:52:56,0.03,0.32,0.00,20.10,27.40,29.23,6.08,32.33,1007.83,2037.29,3347.05,3234.00,3499.01,350.39,324.82,4.48,0000 0000 0000 0000 000000
2014-04-17 01:53:56,-0.01,0.32,0.00,20.09,27.40,29.24,6.06,32.63,1007.84,2037.34,3347.02,3233.98,3499.00,350.05,324.43,4.48,0000 0000 0000 0000 000000
2014-04-17 01:54:56,0.08,0.32,0.00,20.07,27.40,29.24,6.12,32.38,1007.83,2037.47,3347.00,3233.96,3498.99,350.50,324.84,4.49,0000 0000 0000 0000 000000
2014-04-17 01:55:56,0.09,0.33,0.00,20.07,27.40,29.20,5.83,32.08,1007.87,2037.48,3347.00,3233.94,3498.98,349.13,323.57,4.49,0000 0000 0000 0000 000000
2014-04-17 01:56:57,0.01,0.33,0.00,20.07,27.39,29.20,6.16,32.42,1007.92,2037.62,3346.93,3233.88,3498.97,349.46,323.71,4.50,0000 0000 0000 0000 000000
2014-04-17 01:57:57,0.16,0.33,0.00,20.07,27.37,29.21,6.01,32.04,1007.96,2037.77,3346.64,3233.74,3498.93,349.71,323.81,4.50,0000 0000 0000 0000 000000
2014-04-17 01:58:57,0.18,0.33,0.00,20.07,27.37,29.21,6.02,32.50,1008.06,2037.75,3346.28,3233.48,3498.74,350.51,324.91,4.51,0000 0000 0000 0000 000000
2014-04-17 01:59:57,0.09,0.33,0.00,20.07,27.37,29.17,5.99,32.17,1008.13,2037.69,3346.10,3233.21,3498.37,350.16,324.88,4.52,0000 0000 0000 0000 000000
2014-04-17 02:00:58,0.09,0.33,0.00,20.06,27.37,29.13,5.93,32.17,1008.24,2037.75,3346.03,3233.08,3498.15,350.03,324.55,4.52,0000 0000 0000 0000 000000
2014-04-17 02:01:58,0.12,0.33,0.00,20.06,27.36,29.11,6.13,31.96,1008.27,2037.85,3346.01,3233.04,3498.05,350.91,325.28,4.53,0000 0000 0000 0000 000000
2014-04-17 02:02:58,0.08,0.33,0.00,20.07,27.35,29.11,6.15,32.17,1008.31,2037.84,3345.99,3233.03,3498.02,349.39,323.97,4.53,0000 0000 0000 0000 000000
2014-04-17 02:03:59,-0.02,0.33,0.00,20.05,27.35,29.16,6.17,32.33,1008.31,2037.87,3345.95,3233.01,3498.00,350.50,325.01,4.54,0000 0000 0000 0000 000000
2014-04-17 02:04:59,0.07,0.33,0.00,20.04,27.35,29.12,6.09,32.33,1008.31,2037.91,3345.79,3233.00,3498.00,349.99,324.56,4.55,0000 0000 0000 0000 000000
2014-04-17 02:05:59,0.05,0.33,0.00,20.02,27.35,29.14,6.17,32.17,1008.33,2037.93,3345.52,3233.00,3498.00,349.97,324.56,4.55,0000 0000 0000 0000 000000
2014-04-17 02:06:59,0.06,0.33,0.00,20.02,27.34,29.18,5.96,32.33,1008.35,2037.92,3345.28,3233.00,3498.00,349.30,323.95,4.56,0000 0000 0000 0000 000000
2014-04-17 02:07:59,0.02,0.33,0.00,20.02,27.32,29.18,6.10,32.17,1008.55,2037.96,3345.12,3233.00,3497.95,349.34,324.05,4.56,0000 0000 0000 0000 000000
2014-04-17 02:08:59,0.06,0.33,0.00,20.02,27.32,29.14,6.07,32.29,1008.71,2037.95,3345.04,3232.99,3497.80,349.92,324.87,4.57,0000 0000 0000 0000 000000
2014-04-17 02:10:00,0.03,0.33,0.00,20.01,27.32,29.14,6.08,31.88,1008.76,2037.97,3345.01,3232.99,3497.77,350.34,325.01,4.58,0000 0000 0000 0000 000000
2014-04-17 02:11:00,0.01,0.33,0.00,20.00,27.32,29.11,6.14,31.67,1008.78,2037.98,3345.00,3232.98,3497.61,350.17,324.44,4.58,0000 0000 0000 0000 000000
2014-04-17 02:12:00,0.03,0.33,0.00,20.00,27.32,29.13,6.02,32.21,1008.80,2037.98,3344.99,3232.94,3497.45,349.18,324.30,4.59,0000 0000 0000 0000 000000
2014-04-17 02:13:00,0.03,0.33,0.00,20.00,27.30,29.14,6.03,31.88,1008.80,2037.99,3344.93,3232.90,3497.19,349.23,324.48,4.59,0000 0000 0000 0000 000000
2014-04-17 02:14:00,0.06,0.33,0.00,19.99,27.30,29.10,5.94,31.92,1008.80,2037.99,3344.80,3232.84,3497.08,349.46,324.59,4.60,0000 0000 0000 0000 000000
2014-04-17 02:15:00,0.05,0.33,0.00,19.99,27.30,29.08,6.08,31.83,1008.81,2037.98,3344.46,3232.74,3497.04,350.47,324.88,4.60,0000 0000 0000 0000 000000
2014-04-17 02:16:01,0.07,0.33,0.00,19.99,27.30,29.09,6.14,32.00,1008.85,2037.99,3344.18,3232.49,3497.01,350.36,325.36,4.61,0000 0000 0000 0000 000000
2014-04-17 02:17:01,0.09,0.33,0.00,19.97,27.29,29.08,6.17,31.83,1008.89,2037.98,3344.07,3232.22,3497.00,350.20,325.01,4.62,0000 0000 0000 0000 000000
2014-04-17 02:18:01,0.06,0.33,0.00,19.97,27.28,29.09,6.14,32.04,1008.94,2037.96,3344.02,3232.12,3497.00,349.96,324.81,4.62,0000 0000 0000 0000 000000
2014-04-17 02:19:01,0.01,0.33,0.00,19.97,27.27,29.11,5.94,31.83,1009.11,2037.98,3344.00,3232.06,3497.00,349.89,324.65,4.63,0000 0000 0000 0000 000000
2014-04-17 02:20:02,0.02,0.33,0.00,19.94,27.27,29.04,6.09,32.00,1009.16,2037.99,3344.00,3232.06,3496.99,349.72,324.68,4.63,0000 0000 0000 0000 000000
2014-04-17 02:21:02,0.01,0.33,0.00,19.95,27.27,29.03,6.17,31.88,1009.23,2037.99,3344.00,3232.04,3496.96,350.19,324.93,4.64,0000 0000 0000 0000 000000
2014-04-17 02:22:02,0.00,0.33,0.00,19.94,27.27,29.01,6.23,32.04,1009.29,2037.99,3343.94,3232.03,3496.91,350.55,325.09,4.65,0000 0000 0000 0000 000000
2014-04-17 02:23:02,0.02,0.33,0.00,19.93,27.25,28.98,6.20,31.83,1009.29,2037.99,3343.82,3232.01,3496.82,351.04,325.97,4.65,0000 0000 0000 0000 000000
2014-04-17 02:24:02,0.03,0.33,0.00,19.94,27.25,29.04,6.21,32.13,1009.29,2037.99,3343.67,3232.00,3496.68,350.09,325.07,4.66,0000 0000 0000 0000 000000
2014-04-17 02:25:03,0.04,0.33,0.00,19.94,27.25,29.06,6.08,31.83,1009.29,2037.99,3343.35,3232.00,3496.43,349.85,324.85,4.66,0000 0000 0000 0000 000000
2014-04-17 02:26:03,0.07,0.34,0.00,19.92,27.25,29.07,6.07,32.04,1009.29,2037.99,3343.15,3232.00,3496.28,349.38,324.43,4.67,0000 0000 0000 0000 000000
2014-04-17 02:27:03,0.04,0.34,0.00,19.92,27.24,29.02,6.15,31.79,1009.29,2037.99,3343.05,3232.00,3496.15,350.23,325.19,4.67,0000 0000 0000 0000 000000
2014-04-17 02:28:03,0.02,0.34,0.00,19.91,27.23,28.93,5.92,31.96,1009.29,2037.99,3343.02,3231.98,3496.07,349.22,324.30,4.68,0000 0000 0000 0000 000000
2014-04-17 02:29:04,0.01,0.34,0.00,19.92,27.22,28.95,6.02,31.79,1009.29,2037.99,3343.00,3231.97,3496.02,349.84,324.87,4.69,0000 0000 0000 0000 000000
2014-04-17 02:30:04,0.00,0.34,0.00,19.91,27.22,28.96,6.08,32.21,1009.29,2037.99,3342.99,3231.94,3496.00,350.78,325.41,4.69,0000 0000 0000 0000 000000
2014-04-17 02:31:04,0.00,0.34,0.00,19.89,27.22,28.92,6.02,32.38,1009.29,2037.99,3342.76,3231.80,3496.00,348.83,323.79,4.70,0000 0000 0000 0000 000000
2014-04-17 02:32:05,0.08,0.34,0.00,19.89,27.22,28.90,6.06,32.25,1009.30,2037.99,3342.35,3231.47,3496.00,349.91,324.96,4.70,0000 0000 0000 0000 000000
2014-04-17 02:33:05,0.12,0.34,0.00,19.89,27.20,28.92,6.13,32.42,1009.29,2037.99,3342.14,3231.24,3495.99,350.86,325.84,4.71,0000 0000 0000 0000 000000
2014-04-17 02:34:05,0.07,0.34,0.00,19.87,27.20,28.87,5.96,32.25,1009.29,2037.99,3342.05,3231.12,3495.75,348.96,324.06,4.72,0000 0000 0000 0000 000000
2014-04-17 02:35:05,0.07,0.34,0.00,19.88,27.20,28.89,6.24,32.13,1009.29,2037.99,3342.02,3231.04,3495.57,350.97,326.21,4.72,0000 0000 0000 0000 000000
2014-04-17 02:36:06,0.03,0.34,0.00,19.87,27.20,28.90,6.21,32.33,1009.29,2037.99,3342.00,3231.02,3495.37,350.97,325.46,4.73,0000 0000 0000 0000 000000
2014-04-17 02:37:06,0.02,0.34,0.00,19.87,27.19,28.93,5.99,32.08,1009.29,2037.99,3342.00,3231.00,3495.23,350.31,325.03,4.73,0000 0000 0000 0000 000000